Jerez de la Frontera, Spain

3:51 AM CET on February 26, 2017 (GMT +0100)
Jerez

Weather History for LEJR - August, 2013

Change the Weather History Date:

Thursday, August 22, 2013

  Actual Average Record
Temperature  
Mean Temperature 88 °F -  
Max Temperature 106 °F 84 °F 106 °F (2013)
Min Temperature 70 °F 61 °F 55 °F (1996)
Cooling Degree Days 23    
Growing Degree Days 38 (Base 50)    
Moisture  
Dew Point 64 °F    
Average Humidity 54    
Maximum Humidity 83    
Minimum Humidity 21    
Precipitation  
Precipitation 0.00 in 0.02 in - ()
Sea Level Pressure  
Sea Level Pressure 29.94 in    
Wind  
Wind Speed 2 mph ()    
Max Wind Speed 13 mph    
Max Gust Speed 21 mph    
Visibility 13.9 miles    
Events      
Averages and records for this station are not official NWS values.
T = Trace of Precipitation, MM = Missing Value Source: Averaged Metar Reports

Daily Weather History Graph

Daily Weather History Graph

Search for Another Location

Airport or City:

Trip Planner

Search our weather history database for the weather conditions in past years. The results will help you decide how hot, cold, wet, or windy it might be!

Date:

Astronomy

Aug. 22, 2013 Rise Set
Actual Time 7:47 AM CEST 9:06 PM CEST
Civil Twilight 7:20 AM CEST 9:33 PM CEST
Nautical Twilight 6:47 AM CEST 10:05 PM CEST
Astronomical Twilight 6:14 AM CEST 10:39 PM CEST
Moon 9:47 PM CEST (8/22) 9:16 AM CEST (8/22)
Length of Visible Light 14h 13m
Length of Day
13h 19m
Full, 98% of the Moon is Illuminated
Aug 22
Full
Aug 28
Last Quarter
Sep 5
New
Sep 12
First Quarter
Sep 19
Full

Hourly Weather History & Observations

Time (CEST) Temp. Heat Index Dew Point Humidity Pressure Visibility Wind Dir Wind Speed Gust Speed Precip Events Conditions
2:00 AM 74 °F - 69 °F 78% 30.01 in 19 mi South 3.5 mph - -  
5:00 AM 71.6 °F - 66.2 °F 83% 29.98 in - Calm Calm - N/A   Clear
5:30 AM 71.6 °F - 66.2 °F 83% 29.98 in - South 3.5 mph - N/A   Clear
6:00 AM 71.6 °F - 66.2 °F 83% 29.98 in - Variable 2.3 mph - N/A   Clear
6:30 AM 71.6 °F - 66.2 °F 83% 29.95 in - Variable 2.3 mph - N/A   Clear
7:00 AM 71.6 °F - 66.2 °F 83% 29.95 in - Variable 2.3 mph - N/A   Clear
7:30 AM 71.6 °F - 66.2 °F 83% 29.98 in - Variable 2.3 mph - N/A   Clear
8:00 AM 71 °F - 66 °F 79% 29.98 in 19 mi SSW 2.3 mph - -   Clear
8:00 AM 71.6 °F - 66.2 °F 83% 29.98 in - Variable 2.3 mph - N/A   Clear
8:30 AM 73.4 °F - 68.0 °F 83% 29.98 in - Variable 2.3 mph - N/A   Clear
9:00 AM 77.0 °F - 69.8 °F 78% 29.98 in - Calm Calm - N/A   Clear
9:30 AM 77.0 °F - 68.0 °F 74% 29.98 in - Variable 1.2 mph - N/A   Clear
10:00 AM 77.0 °F - 68.0 °F 74% 29.98 in - Variable 1.2 mph - N/A   Clear
10:30 AM 80.6 °F 83.2 °F 68.0 °F 65% 29.98 in - Calm Calm - N/A   Clear
11:00 AM 80.6 °F 83.2 °F 68.0 °F 65% 29.98 in - Variable 1.2 mph - N/A   Clear
11:30 AM 82.4 °F 84.6 °F 66.2 °F 58% 29.98 in - Variable 1.2 mph - N/A   Clear
12:00 PM 86.0 °F 89.4 °F 68.0 °F 55% 29.98 in - Variable 1.2 mph - N/A   Clear
12:30 PM 87.8 °F 90.4 °F 66.2 °F 49% 29.98 in - Variable 1.2 mph - N/A   Clear
1:00 PM 91.4 °F 93.2 °F 64.4 °F 41% 29.98 in - Calm Calm - N/A   Clear
1:30 PM 93.2 °F 94.1 °F 62.6 °F 36% 29.95 in - Variable 1.2 mph - N/A   Clear
2:00 PM 95.0 °F 96.0 °F 62.6 °F 34% 29.95 in - Calm Calm - N/A   Clear
2:30 PM 96.8 °F 98.0 °F 62.6 °F 32% 29.92 in - Variable 1.2 mph - N/A   Clear
3:00 PM 100.4 °F 101.3 °F 60.8 °F 27% 29.92 in - Variable 1.2 mph - N/A   Clear
3:30 PM 102.2 °F 100.9 °F 55.4 °F 21% 29.92 in - Variable 1.2 mph - N/A   Clear
4:00 PM 102.2 °F 100.9 °F 55.4 °F 21% 29.89 in - Variable 2.3 mph - N/A   Clear
4:30 PM 102.2 °F 100.9 °F 55.4 °F 21% 29.89 in - Variable 2.3 mph - N/A   Clear
5:00 PM 104.0 °F 103.4 °F 57.2 °F 21% 29.89 in 6.2 mi Calm Calm - N/A   Partly Cloudy
5:30 PM 102.2 °F 100.9 °F 55.4 °F 21% 29.89 in 6.2 mi Variable 2.3 mph - N/A   Partly Cloudy
6:00 PM 96.8 °F 101.8 °F 68.0 °F 39% 29.86 in - West 12.7 mph - N/A   Clear
6:30 PM 93.2 °F 96.2 °F 66.2 °F 41% 29.89 in - West 9.2 mph - N/A   Clear
7:00 PM 95.0 °F 97.0 °F 64.4 °F 36% 29.86 in - West 8.1 mph - N/A   Clear
7:30 PM 93.2 °F 96.2 °F 66.2 °F 41% 29.86 in - West 10.4 mph - N/A   Clear
8:00 PM 88 °F - 66 °F 38% 29.89 in 19 mi West 10.4 mph - -   Clear
8:00 PM 87.8 °F 91.4 °F 68.0 °F 52% 29.89 in - West 9.2 mph 20.7 mph N/A   Clear
8:30 PM 86.0 °F 87.3 °F 64.4 °F 48% 29.89 in - West 8.1 mph - N/A   Clear
9:00 PM 84.2 °F 84.4 °F 60.8 °F 45% 29.89 in - WSW 5.8 mph - N/A   Clear
9:30 PM 82.4 °F 82.9 °F 60.8 °F 48% 29.89 in - WSW 4.6 mph - N/A   Clear
10:00 PM 82.4 °F 82.9 °F 60.8 °F 48% 29.89 in - Variable 2.3 mph - N/A   Clear
10:30 PM 78.8 °F - 60.8 °F 54% 29.92 in - Variable 1.2 mph - N/A   Clear
11:00 PM 77.0 °F - 64.4 °F 65% 29.92 in - Variable 1.2 mph - N/A   Clear